Content
SEND FEEDBACK

Daily
Averages
Monthly
Summary
Jamaica

KINGSTON, JAMAICA


Home > Caribbean > Jamaica
Elevation: 30 feet     Latitude: 17 56N     Longitude: 076 47W

WEATHER
 
SELECT A DAY
Number of Records: 172,734;   Date Range: 6/30/96 - 10/19/14
 
SHARE

PRINT THIS DATA

[ ← Previous Day ]
WEATHER ALMANAC - JANUARY 31, 2013
[ Next Day → ]
[ °C ]   °F
Weather ElementAverageHighLow
Temperature81.5 °F86 °F (11:00 am)77 °F (3:00 am)
Dewpoint70.3 °F74 °F (1:00 pm)67 °F (10:00 am)
Humidity67.2 %78 % (10:00 pm)50 % (10:00 am)
Barometer29.99 in30.05 in (10:00 am)29.95 in (3:00 pm)
Wind Speed13.8 mph26.5 mph (2:00 pm)
Weather ElementAverage
Visibility8.3 mi
Wind DirectionSSE (158.1 °)

Weather ElementTotal
Precipitation---
Cooling Degree Days16.5 (Base 65)
Growing Degree Days31.5 (Base 50)
Averaged from 32 records on January 31, 2013
WEATHER CONDITIONS BREAKOUT
WIND DIRECTION BREAKOUT
WEATHER BY HOUR - JANUARY 31, 2013
[ °C ]   °F
Local TimeTemperatureDewpointHumidityBarometerVisibilityWind DirectionWind SpeedGust SpeedPrecipitationEventsConditions
1:00 AM80.0 °F71.0 °F66 %29.98 in12.0 miSE (130°)13.8 mph
1:00 AM80.6 °F71.6 °F74 %29.98 in6.2 miSE (130°)13.8 mphMostly Cloudy
2:00 AM78.8 °F68.0 °F69 %29.98 in6.2 miENE (60°)6.9 mphMostly Cloudy
3:00 AM77.0 °F68.0 °F74 %29.98 in6.2 miENE (60°)5.8 mphMostly Cloudy
4:00 AM77.0 °F68.0 °F68 %29.98 in12.0 miNNW (330°)5.8 mphPartly Cloudy
4:00 AM77.0 °F68.0 °F74 %29.98 in6.2 miNNW (330°)5.8 mphScattered Clouds
5:00 AM77.0 °F68.0 °F74 %29.98 in6.2 miWest (280°)4.6 mphPartly Cloudy
6:00 AM78.8 °F68.0 °F69 %29.98 in6.2 miSSE (160°)12.7 mphScattered Clouds
7:00 AM78.8 °F69.8 °F74 %30.01 in6.2 miESE (120°)13.8 mphPartly Cloudy
7:00 AM79.0 °F69.0 °F65 %30.01 in17.0 miESE (120°)13.8 mphScattered Clouds
8:00 AM80.6 °F69.8 °F70 %30.01 in6.2 miESE (110°)11.5 mphPartly Cloudy
9:00 AM82.4 °F69.8 °F66 %30.04 in6.2 miESE (110°)15.0 mphScattered Clouds
10:00 AM83.0 °F67.0 °F50 %30.05 in17.0 miESE (110°)13.8 mphHaze
10:00 AM82.4 °F68.0 °F62 %30.04 in6.2 miESE (110°)13.8 mphScattered Clouds
11:00 AM86.0 °F71.6 °F62 %30.04 in6.2 miESE (120°)17.3 mphPartly Cloudy
12:00 PM86.0 °F71.6 °F62 %29.98 in6.2 miSE (140°)23.0 mphPartly Cloudy
1:00 PM86.0 °F73.4 °F66 %29.98 in6.2 miSE (140°)25.3 mphPartly Cloudy
1:00 PM86.0 °F74.0 °F59 %29.99 in19.0 miSE (140°)25.3 mphHaze
2:00 PM86.0 °F71.6 °F62 %29.98 in6.2 miSE (140°)26.5 mphScattered Clouds
3:00 PM86.0 °F71.6 °F62 %29.95 in6.2 miSE (140°)23.0 mphPartly Cloudy
4:00 PM85.0 °F72.0 °F57 %29.95 in17.0 miSE (140°)23.0 mphHaze
4:00 PM86.0 °F71.6 °F62 %29.95 in6.2 miSE (140°)23.0 mphPartly Cloudy
5:00 PM84.2 °F71.6 °F66 %29.95 in6.2 miSE (140°)20.7 mphPartly Cloudy
6:00 PM84.2 °F71.6 °F66 %29.95 in6.2 miSE (140°)19.6 mphPartly Cloudy
7:00 PM82.4 °F71.6 °F70 %29.95 in6.2 miSE (140°)19.6 mphPartly Cloudy
7:00 PM83.0 °F72.0 °F61 %29.96 in12.0 miSE (140°)19.6 mphHaze
7:12 PM80.6 °F71.6 °F74 %29.98 in6.2 miEast (100°)3.5 mphPartly Cloudy
8:00 PM80.6 °F69.8 °F70 %30.01 in6.2 miNE (40°)4.6 mphPartly Cloudy
9:00 PM78.8 °F69.8 °F74 %30.04 in6.2 miNW (310°)3.5 mphPartly Cloudy
10:00 PM79.0 °F71.0 °F69 %30.03 in12.0 miWSW (240°)3.5 mphHaze
10:00 PM78.8 °F71.6 °F78 %30.01 in6.2 miWSW (240°)3.5 mphPartly Cloudy
11:00 PM77.0 °F68.0 °F74 %30.01 in6.2 miNW (310°)4.6 mphPartly Cloudy
Hourly data recorded from MKJP, located miles away from Kingston, Jamaica







STORIES FROM OUR PARTNERS